Jaipur, India

4:16 AM IST on January 24, 2018 (GMT +0530)
Jaipur

Weather History for VIJP - March, 2014

Change the Weather History Date:

Tuesday, March 11, 2014

  Actual Average Record
Temperature  
Mean Temperature 72 °F -  
Max Temperature 84 °F - - ()
Min Temperature 61 °F - - ()
Cooling Degree Days 8    
Growing Degree Days 22 (Base 50)    
Moisture  
Dew Point 57 °F    
Average Humidity 61    
Maximum Humidity 83    
Minimum Humidity 34    
Precipitation  
Precipitation 0.00 in - - ()
Sea Level Pressure  
Sea Level Pressure 29.93 in    
Wind  
Wind Speed 8 mph ()    
Max Wind Speed 13 mph    
Max Gust Speed -    
Visibility 1.7 miles    
Events      
T = Trace of Precipitation, MM = Missing Value Source: Averaged Metar Reports

Daily Weather History Graph

Daily Weather History Graph

Search for Another Location

Airport or City:

Trip Planner

Search our weather history database for the weather conditions in past years. The results will help you decide how hot, cold, wet, or windy it might be!

Date:

Astronomy

Mar. 11, 2014 Rise Set
Actual Time 6:40 AM IST 6:33 PM IST
Civil Twilight 6:17 AM IST 6:56 PM IST
Nautical Twilight 5:50 AM IST 7:23 PM IST
Astronomical Twilight 5:23 AM IST 7:50 PM IST
Moon 2:05 PM IST (3/11) 2:54 AM IST (3/11)
Length of Visible Light 12h 38m
Length of Day
11h 52m
Waxing Gibbous, 75% of the Moon is Illuminated
Mar 11
Waxing Gibbous
Mar 16
Full
Mar 24
Last Quarter
Mar 31
New
Apr 7
First Quarter

Hourly Weather History & Observations

Time (IST) Temp. Heat Index Dew Point Humidity Pressure Visibility Wind Dir Wind Speed Gust Speed Precip Events Conditions
12:00 AM 64.4 °F - 59.0 °F 83% 29.95 in 1.2 mi East 10.4 mph - N/A   Scattered Clouds
1:00 AM 64.4 °F - 59.0 °F 83% 29.95 in 1.2 mi East 11.5 mph - N/A   Scattered Clouds
2:00 AM 64.4 °F - 57.2 °F 77% 29.92 in 1.2 mi East 9.2 mph - N/A   Scattered Clouds
2:30 AM 64 °F - 58 °F 77% 29.89 in 1 mi East 9.2 mph - -   Mist
3:00 AM 62.6 °F - 57.2 °F 82% 29.89 in 1.0 mi East 9.2 mph - N/A   Scattered Clouds
5:00 AM 62.6 °F - 57.2 °F 82% 29.92 in 1.6 mi SE 6.9 mph - N/A   Scattered Clouds
5:30 AM 63 °F - 56 °F 72% 29.89 in 1 mi ESE 9.2 mph - -   Mist
6:00 AM 62.6 °F - 57.2 °F 82% 29.92 in 1.6 mi ESE 6.9 mph - N/A   Scattered Clouds
7:00 AM 62.6 °F - 57.2 °F 82% 29.95 in 1.6 mi ESE 9.2 mph - N/A   Scattered Clouds
8:00 AM 64.4 °F - 57.2 °F 77% 29.98 in 1.6 mi ESE 8.1 mph - N/A   Scattered Clouds
8:30 AM 66 °F - 57 °F 66% 29.95 in 1 mi ESE 9.2 mph - -   Mist
9:00 AM 66.2 °F - 57.2 °F 73% 30.01 in 1.9 mi SE 11.5 mph - N/A   Haze
10:00 AM 69.8 °F - 55.4 °F 60% 30.01 in 1.9 mi SE 12.7 mph - N/A   Haze
11:00 AM 73.4 °F - 57.2 °F 57% 30.01 in 1.9 mi SSE 12.7 mph - N/A   Haze
11:30 AM 77 °F - 59 °F 44% 29.95 in 1 mi South 11.5 mph - -   Haze
12:00 PM 75.2 °F - 59.0 °F 57% 30.01 in 1.9 mi SE 10.4 mph - N/A   Haze
1:00 PM 78.8 °F - 57.2 °F 47% 29.98 in 2.5 mi SSE 8.1 mph - N/A   Haze
2:00 PM 80.6 °F 80.8 °F 57.2 °F 45% 29.95 in 2.5 mi SSE 8.1 mph - N/A   Haze
2:30 PM 81 °F - 57 °F 34% 29.85 in 2 mi SE 6.9 mph - -   Haze
3:00 PM 82.4 °F 81.7 °F 55.4 °F 39% 29.89 in 2.5 mi SE 9.2 mph - N/A   Haze
4:00 PM 82.4 °F 81.4 °F 53.6 °F 37% 29.86 in 2.5 mi SE 6.9 mph - N/A   Haze
5:00 PM 78.8 °F - 50.0 °F 36% 29.89 in 2.5 mi South 9.2 mph - N/A   Haze
5:30 PM 77 °F - 57 °F 39% 29.83 in 2 mi SE 6.9 mph - -   Haze
6:00 PM 73.4 °F - 59.0 °F 61% 29.89 in 2.5 mi SE 8.1 mph - N/A   Haze
7:00 PM 71.6 °F - 57.2 °F 60% 29.89 in 2.2 mi ESE 8.1 mph - N/A   Haze
8:30 PM 70 °F - 57 °F 55% 29.87 in 1 mi East 5.8 mph - -   Haze
8:30 PM 71.6 °F - 55.4 °F 57% 29.92 in 1.9 mi East 5.8 mph - N/A   Haze
9:00 PM 71.6 °F - 55.4 °F 57% 29.95 in 1.9 mi Variable 3.5 mph - N/A   Haze
9:30 PM 71.6 °F - 57.2 °F 60% 29.95 in 1.9 mi Calm Calm - N/A   Haze
10:00 PM 69.8 °F - 55.4 °F 60% 29.95 in 1.9 mi Calm Calm - N/A   Haze
11:00 PM 69.8 °F - 55.4 °F 60% 29.98 in 1.9 mi WNW 3.5 mph - N/A   Haze
11:30 PM 70 °F - 56 °F 52% 29.92 in 1 mi SW 2.3 mph - -   Haze